Weather History for KEWN - December, 2011

Change the Weather History Date:

Friday, December 16, 2011

  Actual Average Record
Temperature  
Mean Temperature 64 °F 46 °F  
Max Temperature 74 °F 57 °F 83 °F (1971)
Min Temperature 54 °F 36 °F 17 °F (1955)
Degree Days  
Heating Degree Days 1 19  
Month to date heating degree days 221 267  
Since 1 July heating degree days 613 694  
Cooling Degree Days 0 0  
Month to date cooling degree days 0 0  
Year to date cooling degree days 2213 1900  
Growing Degree Days 14 (Base 50)    
Moisture  
Dew Point 53 °F    
Average Humidity 70    
Maximum Humidity 86    
Minimum Humidity 53    
Precipitation  
Precipitation 0.00 in 0.11 in 1.59 in (1973)
Month to date precipitation 0.21 1.74  
Year to date precipitation 39.37 51.09  
Snow  
Snow 0.00 in - - ()
Month to date snowfall 0.0  
Since 1 July snowfall 0.0  
Snow Depth 0.00 in    
Sea Level Pressure  
Sea Level Pressure 30.14 in    
Wind  
Wind Speed 8 mph (West)    
Max Wind Speed 10 mph    
Max Gust Speed -    
Visibility 10 miles    
Events      
T = Trace of Precipitation, MM = Missing Value Source: NWS Daily Summary

Daily Weather History Graph

Daily Weather History Graph

Search for Another Location

Airport or City:

Trip Planner

Search our weather history database for the weather conditions in past years. The results will help you decide how hot, cold, wet, or windy it might be!

Date:

Astronomy

Dec. 16, 2011 Rise Set
Actual Time 7:09 AM EST 4:58 PM EST
Civil Twilight 6:41 AM EST 5:26 PM EST
Nautical Twilight 6:09 AM EST 5:57 PM EST
Astronomical Twilight 5:38 AM EST 6:28 PM EST
Moon 11:15 PM EST (12/16) 11:06 AM EST (12/16)
Length of Visible Light 10h 44m
Length of Day
9h 48m
Waning Gibbous, 65% of the Moon is Illuminated
Dec 16
Waning Gibbous
Dec 17
Last Quarter
Dec 24
New
Jan 1
First Quarter
Jan 9
Full

Hourly Weather History & Observations

Time (EST) Temp. Dew Point Humidity Pressure Visibility Wind Dir Wind Speed Gust Speed Precip Events Conditions
12:54 AM 57.9 °F 54.0 °F 87% 30.14 in 10.0 mi SW 6.9 mph - N/A   Clear
1:54 AM 60.1 °F 54.0 °F 80% 30.14 in 10.0 mi SW 9.2 mph - N/A   Clear
2:54 AM 60.1 °F 54.0 °F 80% 30.14 in 10.0 mi SW 9.2 mph - N/A   Clear
3:54 AM 60.8 °F 53.6 °F 77% 30.13 in 10.0 mi SW 9.2 mph - N/A   Clear
5:54 AM 61.0 °F 54.0 °F 78% 30.14 in 10.0 mi WSW 9.2 mph - N/A   Clear
6:54 AM 59.0 °F 53.6 °F 82% 30.15 in 10.0 mi WSW 8.1 mph - N/A   Clear
7:54 AM 60.1 °F 53.1 °F 78% 30.16 in 10.0 mi WSW 6.9 mph - N/A   Clear
8:54 AM 63.0 °F 55.0 °F 75% 30.17 in 10.0 mi WSW 6.9 mph - N/A   Clear
9:54 AM 66.9 °F 55.0 °F 66% 30.18 in 10.0 mi WSW 8.1 mph - N/A   Clear
10:54 AM 70.0 °F 57.0 °F 63% 30.18 in 10.0 mi WNW 10.4 mph - N/A   Clear
11:54 AM 72.0 °F 57.9 °F 61% 30.15 in 10.0 mi West 9.2 mph - N/A   Clear
12:54 PM 72.0 °F 57.9 °F 61% 30.13 in 10.0 mi WNW 5.8 mph - N/A   Mostly Cloudy
1:54 PM 73.0 °F 55.9 °F 55% 30.11 in 10.0 mi WNW 8.1 mph - N/A   Overcast
2:54 PM 71.1 °F 55.9 °F 59% 30.11 in 10.0 mi West 4.6 mph - N/A   Overcast
3:54 PM 71.1 °F 55.9 °F 59% 30.10 in 10.0 mi Calm Calm - N/A   Overcast
4:54 PM 66.9 °F 57.0 °F 70% 30.10 in 10.0 mi ENE 3.5 mph - N/A   Overcast
5:54 PM 66.9 °F 55.9 °F 68% 30.11 in 10.0 mi East 4.6 mph - N/A   Overcast
6:54 PM 59.0 °F 48.9 °F 69% 30.14 in 10.0 mi ENE 10.4 mph - N/A   Overcast
7:54 PM 55.9 °F 46.9 °F 72% 30.14 in 10.0 mi ENE 10.4 mph - N/A   Mostly Cloudy
8:54 PM 55.0 °F 44.1 °F 67% 30.13 in 10.0 mi ENE 6.9 mph - N/A   Overcast
9:16 PM 55.4 °F 44.6 °F 67% 30.14 in 10.0 mi NE 5.8 mph - N/A   Overcast
9:54 PM 54.0 °F 42.1 °F 64% 30.14 in 10.0 mi NE 6.9 mph - N/A   Overcast